GW7024 Weather Reports


time (UTC)temp
C
wind
direction
speed
KPH
gust
KPH
rain 1hr
cm
rain 24hr
cm
rain mn
cm
humidity
%
barometer
mb
20260503014124 16 169 0.0 0.0 0.00 0.00 0.00 40 1010.2
20260503013621 16 131 3.2 3.2 0.00 0.00 0.00 41 1010.4
20260503013119 16 124 3.2 3.2 0.00 0.00 0.00 40 1010.1
20260503012616 16 165 0.0 1.6 0.00 0.00 0.00 40 1010.2
20260503012113 16 174 0.0 1.6 0.00 0.00 0.00 41 1010.3
20260503011609 16 157 0.0 1.6 0.00 0.00 0.00 41 1010.3
20260503011106 16 164 1.6 1.6 0.00 0.00 0.00 40 1010.5
20260503010602 16 162 0.0 0.0 0.00 0.00 0.00 41 1010.5
20260503010100 17 79 3.2 4.8 0.00 0.00 0.00 39 1010.4
20260503005557 17 160 8.0 14.5 0.00 0.00 0.00 38 1010.6
20260503005054 17 97 1.6 3.2 0.00 0.00 0.00 40 1010.8
20260503004550 17 168 3.2 3.2 0.00 0.00 0.00 37 1010.7
20260503004049 17 75 3.2 4.8 0.00 0.00 0.00 41 1010.7
20260503003545 17 134 1.6 1.6 0.00 0.00 0.00 42 1010.6
20260503003042 17 65 6.4 9.7 0.00 0.00 0.00 38 1010.7
20260503002539 17 55 3.2 4.8 0.00 0.00 0.00 40 1011.0
20260503002036 17 311 6.4 11.3 0.00 0.00 0.00 36 1010.9
20260503001532 17 149 0.0 1.6 0.00 0.00 0.00 40 1010.6
20260503001030 17 156 0.0 0.0 0.00 0.00 0.00 35 1010.7
20260503000527 17 160 0.0 1.6 0.00 0.00 0.00 41 1010.7
20260503000024 17 139 1.6 1.6 0.00 0.00 0.00 35 1010.6
20260502235520 17 178 1.6 1.6 0.00 0.00 0.00 35 1010.8
20260502235018 17 50 3.2 4.8 0.00 0.00 0.00 41 1011.0
20260502234514 17 110 1.6 1.6 0.00 0.00 0.00 43 1011.0
20260502234012 17 93 3.2 4.8 0.00 0.00 0.00 42 1011.0
20260502233512 17 168 1.6 3.2 0.00 0.00 0.00 37 1011.1
20260502233010 17 117 1.6 3.2 0.00 0.00 0.00 40 1011.2
20260502232506 17 152 0.0 0.0 0.00 0.00 0.00 39 1011.3
20260502232002 17 135 0.0 0.0 0.00 0.00 0.00 43 1011.4
20260502231500 17 25 3.2 4.8 0.00 0.00 0.00 39 1011.5
20260502230958 17 44 4.8 6.4 0.00 0.00 0.00 40 1011.7
20260502230455 17 99 4.8 6.4 0.00 0.00 0.00 37 1011.5
20260502225953 17 64 3.2 3.2 0.00 0.00 0.00 39 1011.5
20260502225449 17 140 1.6 1.6 0.00 0.00 0.00 36 1011.4
20260502224946 17 151 4.8 6.4 0.00 0.00 0.00 34 1011.6
20260502224442 17 224 0.0 1.6 0.00 0.00 0.00 38 1011.6
20260502223939 17 179 1.6 1.6 0.00 0.00 0.00 35 1011.6
20260502223437 17 126 0.0 1.6 0.00 0.00 0.00 36 1011.5
20260502222935 17 165 0.0 0.0 0.00 0.00 0.00 36 1011.8
20260502222433 17 132 3.2 3.2 0.00 0.00 0.00 34 1011.7
20260502221928 17 64 4.8 6.4 0.00 0.00 0.00 36 1011.6
20260502221425 18 146 3.2 3.2 0.00 0.00 0.00 34 1011.7
20260502220922 18 170 1.6 1.6 0.00 0.00 0.00 34 1011.8
20260502220417 17 156 0.0 1.6 0.00 0.00 0.00 39 1012.0
20260502215914 17 142 3.2 3.2 0.00 0.00 0.00 33 1011.9
20260502215412 17 154 3.2 4.8 0.00 0.00 0.00 35 1012.2
20260502214908 17 139 0.0 1.6 0.00 0.00 0.00 32 1012.3
20260502214405 17 149 1.6 1.6 0.00 0.00 0.00 37 1012.4
20260502213902 17 144 1.6 1.6 0.00 0.00 0.00 33 1012.5
20260502213359 17 114 1.6 1.6 0.00 0.00 0.00 38 1012.5
20260502212858 17 166 1.6 3.2 0.00 0.00 0.00 31 1012.6
20260502212356 18 122 3.2 4.8 0.00 0.00 0.00 31 1012.6
20260502211853 19 153 1.6 1.6 0.00 0.00 0.00 35 1012.8
20260502211348 18 12 4.8 4.8 0.00 0.00 0.00 39 1012.8
20260502210846 18 105 3.2 3.2 0.00 0.00 0.00 32 1013.0
20260502210343 20 159 6.4 9.7 0.00 0.00 0.00 33 1012.9
20260502205841 20 147 0.0 0.0 0.00 0.00 0.00 40 1013.1
20260502205336 20 11 4.8 4.8 0.00 0.00 0.00 34 1013.1
20260502204834 19 164 1.6 1.6 0.00 0.00 0.00 33 1013.3
20260502204331 19 307 4.8 6.4 0.00 0.00 0.00 34 1013.6
20260502203828 18 127 3.2 4.8 0.00 0.00 0.00 35 1013.5
20260502203326 18 80 6.4 11.3 0.00 0.00 0.00 36 1013.5
20260502202826 18 90 3.2 3.2 0.00 0.00 0.00 33 1013.7
20260502202324 18 272 1.6 3.2 0.00 0.00 0.00 35 1013.9
20260502201821 17 197 4.8 4.8 0.00 0.00 0.00 32 1013.9
20260502201317 17 248 4.8 9.7 0.00 0.00 0.00 31 1013.9
20260502200814 17 168 1.6 1.6 0.00 0.00 0.00 34 1014.2
20260502200310 17 290 6.4 9.7 0.00 0.00 0.00 34 1014.3
20260502195808 16 3 4.8 9.7 0.00 0.00 0.00 42 1014.5
20260502195305 16 172 1.6 3.2 0.00 0.00 0.00 34 1014.5
20260502194800 16 54 9.7 12.9 0.00 0.00 0.00 35 1014.5
20260502194258 17 65 3.2 6.4 0.00 0.00 0.00 33 1014.7
20260502193754 17 164 1.6 1.6 0.00 0.00 0.00 34 1014.6
20260502193251 16 76 3.2 3.2 0.00 0.00 0.00 38 1014.6
20260502192751 16 58 3.2 3.2 0.00 0.00 0.00 41 1014.8
20260502192249 16 103 0.0 0.0 0.00 0.00 0.00 37 1014.9
20260502191746 16 183 1.6 1.6 0.00 0.00 0.00 34 1015.1
20260502191244 16 52 1.6 1.6 0.00 0.00 0.00 38 1015.0
20260502190741 16 66 3.2 4.8 0.00 0.00 0.00 36 1015.2
20260502190238 16 136 3.2 3.2 0.00 0.00 0.00 33 1015.4
20260502185738 16 160 4.8 4.8 0.00 0.00 0.00 43 1015.4
20260502185235 16 111 3.2 3.2 0.00 0.00 0.00 34 1015.5
20260502184732 16 101 3.2 3.2 0.00 0.00 0.00 36 1015.4
20260502184227 16 174 3.2 3.2 0.00 0.00 0.00 37 1015.7
20260502183724 16 166 1.6 1.6 0.00 0.00 0.00 35 1015.8
20260502183220 16 27 3.2 3.2 0.00 0.00 0.00 34 1015.8
20260502182715 15 39 8.0 11.3 0.00 0.00 0.00 41 1015.7
20260502182211 15 191 9.7 12.9 0.00 0.00 0.00 39 1015.8
20260502181708 15 80 4.8 4.8 0.00 0.00 0.00 36 1015.9
20260502181208 15 125 1.6 3.2 0.00 0.00 0.00 36 1016.1
20260502180704 15 160 3.2 3.2 0.00 0.00 0.00 36 1016.2
20260502180201 15 78 6.4 11.3 0.00 0.00 0.00 41 1016.3
20260502170126 14 24 8.0 11.3 0.00 0.00 0.00 36 1017.2
20260502164112 14 46 3.2 4.8 0.00 0.00 0.00 43 1017.6
20260502163609 13 39 6.4 6.4 0.00 0.00 0.00 45 1017.5
20260502163105 13 110 1.6 1.6 0.00 0.00 0.00 40 1017.8
20260502162602 13 66 3.2 3.2 0.00 0.00 0.00 40 1017.6
20260502162059 13 50 3.2 4.8 0.00 0.00 0.00 40 1017.8
20260502161556 13 105 3.2 6.4 0.00 0.00 0.00 37 1017.8
20260502161053 13 155 1.6 3.2 0.00 0.00 0.00 36 1017.9
20260502160551 13 118 3.2 3.2 0.00 0.00 0.00 43 1017.9
20260502151958 13 43 3.2 3.2 0.00 0.00 0.00 44 1018.4
20260502151455 13 101 1.6 1.6 0.00 0.00 0.00 47 1018.3
20260502150952 12 37 3.2 4.8 0.00 0.00 0.00 47 1018.5
20260502150449 12 63 3.2 3.2 0.00 0.00 0.00 40 1018.3
20260502130335 7 152 0.0 0.0 0.00 0.00 0.00 62 1018.9
20260502123318 5 165 1.6 1.6 0.00 0.00 0.00 74 1018.8
20260502122815 4 124 1.6 3.2 0.00 0.00 0.00 75 1018.8
20260502122310 3 157 0.0 0.0 0.00 0.00 0.00 82 1018.7
20260502121809 3 162 0.0 0.0 0.00 0.00 0.00 87 1018.8
20260502121306 2 183 0.0 0.0 0.00 0.00 0.00 92 1018.6
20260502120803 1 157 0.0 0.0 0.00 0.00 0.00 91 1018.9
20260502120259 1 155 0.0 0.0 0.00 0.00 0.00 91 1018.9
20260502115757 1 156 0.0 0.0 0.00 0.00 0.00 92 1018.8
20260502115254 1 155 0.0 0.0 0.00 0.00 0.00 92 1018.6
20260502114749 0 162 0.0 0.0 0.00 0.00 0.00 93 1018.6
20260502114247 0 158 0.0 0.0 0.00 0.00 0.00 92 1018.8
20260502113744 0 153 0.0 0.0 0.00 0.00 0.00 92 1018.8
20260502113242 0 147 0.0 0.0 0.00 0.00 0.00 92 1018.7
20260502112740 0 157 0.0 0.0 0.00 0.00 0.00 92 1018.6
20260502112237 0 157 0.0 0.0 0.00 0.00 0.00 92 1018.6
20260502111734 0 155 0.0 0.0 0.00 0.00 0.00 92 1018.6
20260502111231 0 151 0.0 0.0 0.00 0.00 0.00 91 1018.6
20260502110729 0 148 0.0 0.0 0.00 0.00 0.00 91 1018.7
20260502110226 0 156 0.0 0.0 0.00 0.00 0.00 92 1018.7
20260502105724 0 151 0.0 0.0 0.00 0.00 0.00 92 1018.8
20260502105220 0 151 0.0 0.0 0.00 0.00 0.00 91 1018.7
20260502104718 0 152 0.0 0.0 0.00 0.00 0.00 91 1018.7
20260502104215 0 156 0.0 0.0 0.00 0.00 0.00 91 1018.6
20260502103713 0 155 0.0 0.0 0.00 0.00 0.00 91 1018.5
20260502103211 0 155 0.0 0.0 0.00 0.00 0.00 91 1018.4
20260502102707 0 155 0.0 0.0 0.00 0.00 0.00 91 1018.7
20260502102204 0 151 0.0 0.0 0.00 0.00 0.00 91 1018.6
20260502101702 0 151 0.0 0.0 0.00 0.00 0.00 91 1018.7
20260502101200 0 151 0.0 0.0 0.00 0.00 0.00 91 1018.7
20260502100658 0 151 0.0 0.0 0.00 0.00 0.00 91 1018.6
20260502100156 1 153 0.0 0.0 0.00 0.00 0.00 91 1018.7
20260502091130 1 156 0.0 0.0 0.00 0.00 0.00 88 1018.5
20260502090627 1 150 0.0 0.0 0.00 0.00 0.00 88 1018.5
20260502090124 1 151 0.0 0.0 0.00 0.00 0.00 88 1018.5
20260502071521 1 157 0.0 0.0 0.00 0.00 0.00 86 1018.7
20260502071020 1 157 0.0 0.0 0.00 0.00 0.00 86 1018.8
20260502070517 1 157 0.0 0.0 0.00 0.00 0.00 86 1018.7
20260502070015 1 157 0.0 0.0 0.00 0.00 0.00 85 1018.8
20260502065514 1 156 0.0 0.0 0.00 0.00 0.00 85 1018.7
20260502065011 1 157 0.0 0.0 0.00 0.00 0.00 83 1018.7
20260502064509 1 157 0.0 0.0 0.00 0.00 0.00 82 1018.9
20260502064006 1 157 0.0 0.0 0.00 0.00 0.00 82 1018.9
20260502063504 1 156 0.0 0.0 0.00 0.00 0.00 83 1018.9
20260502063001 1 156 0.0 0.0 0.00 0.00 0.00 82 1018.8
20260502062458 2 156 0.0 0.0 0.00 0.00 0.00 83 1018.8
20260502061957 2 156 0.0 0.0 0.00 0.00 0.00 83 1018.8
20260502061454 2 157 0.0 0.0 0.00 0.00 0.00 83 1018.9
20260502060950 2 155 0.0 0.0 0.00 0.00 0.00 83 1018.7
20260502060446 2 155 0.0 0.0 0.00 0.00 0.00 83 1018.7
20260502055942 2 155 0.0 0.0 0.00 0.00 0.00 82 1018.9
20260502055440 2 155 0.0 0.0 0.00 0.00 0.00 82 1018.9
20260502054935 2 155 0.0 0.0 0.00 0.00 0.00 81 1018.8
20260502054432 2 153 0.0 0.0 0.00 0.00 0.00 79 1019.0
20260502053929 2 151 0.0 0.0 0.00 0.00 0.00 78 1018.9
20260502053426 2 155 0.0 0.0 0.00 0.00 0.00 74 1018.9
20260502052924 2 155 0.0 0.0 0.00 0.00 0.00 74 1018.9
20260502052422 3 155 0.0 0.0 0.00 0.00 0.00 74 1019.0
20260502051920 3 155 0.0 0.0 0.00 0.00 0.00 74 1018.9
20260502051418 3 156 0.0 0.0 0.00 0.00 0.00 73 1018.9
20260502050914 3 156 0.0 0.0 0.00 0.00 0.00 71 1018.8
20260502050411 3 156 0.0 0.0 0.00 0.00 0.00 70 1018.9
20260502045908 3 156 0.0 0.0 0.00 0.00 0.00 69 1018.7
20260502045405 3 156 0.0 0.0 0.00 0.00 0.00 67 1018.8
20260502044902 4 153 0.0 0.0 0.00 0.00 0.00 65 1018.9
20260502044357 4 160 0.0 0.0 0.00 0.00 0.00 64 1018.8
20260502043855 3 162 0.0 0.0 0.00 0.00 0.00 64 1018.7
20260502043352 3 156 0.0 0.0 0.00 0.00 0.00 66 1018.7
20260502042852 3 147 0.0 0.0 0.00 0.00 0.00 65 1018.7
20260502042349 4 155 0.0 0.0 0.00 0.00 0.00 65 1018.8
20260502041846 4 152 0.0 0.0 0.00 0.00 0.00 64 1018.8
20260502041343 4 150 0.0 0.0 0.00 0.00 0.00 63 1018.7
20260502040841 4 152 0.0 0.0 0.00 0.00 0.00 69 1018.8
20260502040338 5 151 0.0 0.0 0.00 0.00 0.00 67 1018.8
20260502035834 5 155 0.0 0.0 0.00 0.00 0.00 63 1018.7
20260502035331 5 155 0.0 0.0 0.00 0.00 0.00 60 1018.7
20260502034828 5 157 0.0 0.0 0.00 0.00 0.00 59 1018.8
20260502034326 5 157 0.0 0.0 0.00 0.00 0.00 58 1018.9
20260502033824 5 157 0.0 0.0 0.00 0.00 0.00 58 1019.0
20260502033322 6 146 0.0 0.0 0.00 0.00 0.00 60 1018.8
20260502032818 6 159 0.0 0.0 0.00 0.00 0.00 56 1018.8
20260502032314 6 159 0.0 0.0 0.00 0.00 0.00 55 1018.9
20260502031812 6 151 0.0 0.0 0.00 0.00 0.00 56 1018.9
20260502031310 6 160 0.0 0.0 0.00 0.00 0.00 54 1019.0
20260502030808 6 163 0.0 0.0 0.00 0.00 0.00 56 1018.7
20260502030306 6 149 0.0 0.0 0.00 0.00 0.00 58 1018.8
20260502025803 6 130 1.6 1.6 0.00 0.00 0.00 58 1018.9
20260502025301 5 157 0.0 0.0 0.00 0.00 0.00 60 1018.9
20260502024758 5 152 0.0 0.0 0.00 0.00 0.00 62 1018.8
20260502024256 5 154 0.0 0.0 0.00 0.00 0.00 59 1018.8
20260502023754 5 150 0.0 0.0 0.00 0.00 0.00 62 1018.8
20260502023251 6 146 0.0 0.0 0.00 0.00 0.00 62 1018.8
20260502022749 6 145 0.0 0.0 0.00 0.00 0.00 60 1018.8
20260502022245 6 149 0.0 0.0 0.00 0.00 0.00 55 1018.7
20260502021742 6 152 0.0 0.0 0.00 0.00 0.00 54 1018.8
20260502021240 6 150 0.0 0.0 0.00 0.00 0.00 55 1018.7
20260502020737 7 149 0.0 0.0 0.00 0.00 0.00 56 1018.6
20260502020234 7 147 0.0 0.0 0.00 0.00 0.00 55 1018.7
20260502015732 7 161 0.0 0.0 0.00 0.00 0.00 57 1018.6
20260502015227 7 154 0.0 0.0 0.00 0.00 0.00 53 1018.7
20260502014725 7 154 0.0 0.0 0.00 0.00 0.00 48 1018.4
20260502014222 7 159 0.0 0.0 0.00 0.00 0.00 50 1018.4